This demonstration page uses our WeatherBlox Daily Observations layout. Learn more.

Left ArrowRight Arrow

34.02893, -84.19858

Hourly Observations for April 7, 2019

Temp ( °F °C ) Dew Point ( °F °C ) Humidity (%) Winds ( mph kmh ) Pressure ( in mb ) Visibility ( mi km ) Precip ( " mm )
12:32 am 00:32 Mostly Cloudy 63 17.2 61 16.1 93 93 SE 5 7 30.15 1021 9 14 0.00 0.00
12:46 am 00:46 Mostly Cloudy 63 17.2 61 16.1 93 93 SSE 6 9 30.16 1021 9 14 0.00 0.00
12:53 am 00:53 Cloudy 63 17.2 61 16.1 93 93 SSE 6 9 30.15 1021 8 13 0.00 0.00
1:40 am 01:40 Cloudy with Nearby Thunderstorms 63 17.2 61 16.1 93 93 W 18 30 30.22 1024 8 13 0.00 0.00
1:44 am 01:44 Cloudy with Thunderstorms 63 17.2 60 15.6 90 90 W 23 37 30.21 1023 3 4 0.09 2.29
1:50 am 01:50 Cloudy with Strong Thunderstorms 61 16 57 14 88 88 W 8 13 30.21 1023 1 1 0.33 8.38
1:51 am 01:51 Cloudy with Strong Thunderstorms 60 15.6 58 14.4 93 93 W 7 11 30.19 1023 1 1 0.34 8.64
1:55 am 01:55 Cloudy with Strong Thunderstorms 60 15.6 59 15 96 96 WSW 6 9 30.21 1023 1 2 0.06 1.52
2:11 am 02:11 Cloudy with Thunderstorms 60 15.6 59 15 96 96 Calm 30.20 1023 3 5 0.18 4.57
2:41 am 02:41 Cloudy with Nearby Thunderstorms 60 15.6 60 15.6 100 100 S 3 6 30.21 1023 4 6 0.25 6.35
2:50 am 02:50 Cloudy with Thunderstorms 61 16 61 16 100 100 S 3 6 30.21 1023 3 5 0.28 7.11
2:53 am 02:53 Cloudy with Thunderstorms 60 15.6 60 15.6 100 100 SE 3 6 30.19 1023 3 5 0.30 7.62
3:18 am 03:18 Cloudy with Light Rain 60 15.6 60 15.6 100 100 VRB 3 6 30.18 1022 4 6 0.07 1.78
3:53 am 03:53 Cloudy with Light Rain 60 15.6 60 15.6 100 100 Calm 30.16 1021 8 13 0.09 2.29
4:53 am 04:53 Cloudy with Light Rain 60 15.6 60 15.6 100 100 Calm 30.16 1022 8 13 0.03 0.76
5:53 am 05:53 Mostly Cloudy with Light Rain 60 15.6 60 15.6 100 100 N 3 6 30.18 1022 8 13 0.02 0.51
6:10 am 06:10 Cloudy with Light Rain 60 15.6 60 15.6 100 100 E 7 11 30.12 1020 2 3 0.00 0.03
6:20 am 06:20 Mostly Cloudy with Light Rain 60 15.6 60 15.6 100 100 WSW 8 13 30.18 1022 3 5 0.01 0.25
6:27 am 06:27 Mostly Cloudy 60 15.6 60 15.6 100 100 W 8 13 30.19 1022 10 16 0.01 0.25
6:53 am 06:53 Mostly Clear with Mist and Fog 59 15 59 15 100 100 Calm 30.16 1022 6 10 0.01 0.25
7:12 am 07:12 Mostly Clear 59 15 59 15 100 100 Calm 30.17 1022 2 3 0.00 0.00
7:19 am 07:19 Sunny 59 15 59 15 100 100 Calm 30.17 1022 7 11 0.00 0.00
7:33 am 07:33 Mostly Sunny 59 15 59 15 100 100 Calm 30.17 1022 7 11 0.00 0.00
7:53 am 07:53 Sunny 59 15 59 15 100 100 Calm 30.16 1021 7 11 0.00 0.00
8:00 am 08:00 Sunny with Mist and Fog 59 15 59 15 100 100 Calm 30.18 1022 3 4 0.00 0.00
8:09 am 08:09 Sunny with Mist and Fog 60 15.6 60 15.6 100 100 Calm 30.17 1022 6 10 0.00 0.00
8:53 am 08:53 Sunny with Mist and Fog 61 16.1 60 15.6 97 97 Calm 30.18 1022 6 10 0.00 0.00
9:53 am 09:53 Sunny 63 17.2 61 16.1 93 93 Calm 30.16 1021 10 16 0.00 0.00
10:53 am 10:53 Sunny 67 19.4 63 17.2 87 87 Calm 30.16 1022 10 16 0.00 0.00
11:53 am 11:53 Sunny 71 21.7 63 17.2 76 76 SE 7 11 30.15 1021 10 16 0.00 0.00
12:53 pm 12:53 Sunny 73 22.8 61 16.1 66 66 SE 7 11 30.14 1021 10 16 0.00 0.00
1:53 pm 13:53 Sunny 75 23.9 60 15.6 60 60 SE 8 13 30.13 1020 10 16 0.00 0.00
2:53 pm 14:53 Sunny 77 25 61 16.1 58 58 S 8 13 30.11 1020 10 16 0.00 0.00
3:53 pm 15:53 Sunny 77 25 61 16.1 58 58 S 8 13 30.07 1018 10 16 0.00 0.00
4:53 pm 16:53 Mostly Sunny 78 25.6 62 16.7 58 58 S 8 13 30.07 1018 10 16 0.00 0.00
5:53 pm 17:53 Mostly Cloudy 77 25 62 16.7 60 60 SSW 15 24 30.06 1018 10 16 0.00 0.00
6:53 pm 18:53 Partly Cloudy 76 24.4 62 16.7 62 62 SSE 7 11 30.04 1017 10 16 0.00 0.00
7:53 pm 19:53 Sunny 73 22.8 61 16.1 66 66 S 7 11 30.06 1018 10 16 0.00 0.00
8:53 pm 20:53 Partly Cloudy 71 21.7 61 16.1 71 71 SSW 3 6 30.08 1019 10 16 0.00 0.00
9:53 pm 21:53 Clear 69 20.6 62 16.7 78 78 SSE 5 7 30.09 1019 10 16 0.00 0.00
10:53 pm 22:53 Clear 68 20 62 16.7 81 81 SSE 5 7 30.07 1018 10 16 0.00 0.00
11:53 pm 23:53 Mostly Cloudy 66 18.9 63 17.2 90 90 SSE 3 6 30.07 1018 10 16 0.00 0.00

Powered by AerisWeather